Printer-friendly version

IAU Minor Planet Center

Minor Planet Center

P/2004 A1 (LONEOS)

Orbital Elements

The following orbital elements are taken from MPC 60921:
P/2004 A1 (LONEOS)
Epoch 2004 Aug. 23.0 TT = JDT 2453240.5
T 2004 Aug. 25.8379 TT                                  MPC
q   5.462523             (2000.0)            P               Q
n   0.0444220      Peri.   20.4848      -0.8215450      -0.5500840
a   7.895942       Node   125.2459      +0.4942143      -0.8181773
e   0.308186       Incl.   10.5768      +0.2842816      -0.1673125
P  22.2
From 495 observations 2003 Oct. 25-2007 Aug. 7, mean residual 0".7.
Elements are also available for the current standard epoch:
P/2004 A1 (LONEOS)
Epoch 2010 Jan. 4.0 TT = JDT 2455200.5
T 2004 Sept. 3.9911 TT                                  MPC
q   5.486909             (2000.0)            P               Q
n   0.0439450      Peri.   21.8410      -0.8317568      -0.5344772
a   7.952972       Node   124.9744      +0.4783823      -0.8272089
e   0.310081       Incl.   10.5515      +0.2816574      -0.1733770
P  22.4
An explanation of the orbital elements is available.

These orbital elements are also available in forms suitable for loading into a number of popular planetarium-type software programs.


Ephemeris

The following ephemeris is at intervals of five days. A daily ephemeris covering the same time interval is also available.

Personalized ephemerides for this (and other) objects may be generated using the Minor Planet & Comet Ephemeris Service.

Recent magnitude estimates for this comet (as reported to the ICQ) may be available.

Date    TT    R. A. (2000) Decl.     Delta      r     Elong.  Phase   m1    m2

WARNING!

This comet gets close to the sun during the period covered in the ephemeris below. Observers are warned to be wary of observing comets near the sun. NEVER point any kind of optical instrument at the sun--instant blindness will be the probable result.

2009 10 26 17 16.93 -16 40.1 9.023 8.382 47.4 5.0 20.5 21.8 2009 10 31 17 19.29 -16 46.4 9.090 8.391 43.0 4.6 20.5 21.8 2009 11 05 17 21.75 -16 52.5 9.151 8.400 38.7 4.2 20.6 21.8 2009 11 10 17 24.30 -16 58.2 9.208 8.409 34.3 3.8 20.6 21.8 2009 11 15 17 26.93 -17 03.6 9.259 8.417 30.0 3.4 20.6 21.8 2009 11 20 17 29.64 -17 08.6 9.305 8.426 25.7 2.9 20.6 21.8 2009 11 25 17 32.41 -17 13.3 9.346 8.435 21.5 2.5 20.6 21.8 2009 11 30 17 35.23 -17 17.5 9.380 8.444 17.3 2.0 20.6 21.7 2009 12 05 17 38.08 -17 21.3 9.408 8.452 13.3 1.5 20.6 21.7 2009 12 10 17 40.96 -17 24.7 9.431 8.461 9.6 1.1 20.6 21.7 2009 12 15 17 43.86 -17 27.6 9.447 8.470 6.7 0.8 20.7 21.6 2009 12 20 17 46.76 -17 30.1 9.456 8.478 6.0 0.7 20.7 21.6 2009 12 25 17 49.66 -17 32.1 9.460 8.487 8.2 0.9 20.7 21.7 2009 12 30 17 52.54 -17 33.7 9.457 8.496 11.6 1.3 20.7 21.7 2010 01 04 17 55.38 -17 34.9 9.447 8.504 15.6 1.8 20.7 21.7 2010 01 09 17 58.19 -17 35.6 9.432 8.513 19.7 2.2 20.7 21.8 2010 01 14 18 00.95 -17 35.9 9.411 8.522 24.0 2.7 20.7 21.8 2010 01 19 18 03.64 -17 35.8 9.383 8.530 28.3 3.1 20.7 21.8 2010 01 24 18 06.26 -17 35.4 9.350 8.539 32.7 3.6 20.7 21.9 2010 01 29 18 08.79 -17 34.5 9.312 8.547 37.1 4.0 20.7 21.9 2010 02 03 18 11.23 -17 33.4 9.268 8.556 41.5 4.4 20.7 21.9 2010 02 08 18 13.56 -17 31.9 9.220 8.564 46.0 4.8 20.7 21.9 2010 02 13 18 15.78 -17 30.2 9.167 8.573 50.5 5.1 20.6 21.9 2010 02 18 18 17.86 -17 28.3 9.110 8.581 55.0 5.4 20.6 21.9 2010 02 23 18 19.81 -17 26.1 9.049 8.590 59.5 5.7 20.6 21.9 2010 02 28 18 21.61 -17 23.8 8.984 8.598 64.1 5.9 20.6 21.9 2010 03 05 18 23.25 -17 21.4 8.917 8.607 68.7 6.2 20.6 21.9 2010 03 10 18 24.73 -17 18.8 8.847 8.615 73.3 6.3 20.6 21.9 2010 03 15 18 26.03 -17 16.3 8.776 8.623 78.0 6.5 20.6 21.9 2010 03 20 18 27.16 -17 13.7 8.702 8.632 82.7 6.6 20.6 21.9 2010 03 25 18 28.10 -17 11.1 8.628 8.640 87.4 6.6 20.5 21.9 2010 03 30 18 28.84 -17 08.7 8.554 8.649 92.1 6.6 20.5 21.8 2010 04 04 18 29.39 -17 06.3 8.480 8.657 96.9 6.6 20.5 21.8 2010 04 09 18 29.75 -17 04.1 8.407 8.665 101.7 6.5 20.5 21.8 2010 04 14 18 29.90 -17 02.1 8.335 8.673 106.5 6.4 20.5 21.8 2010 04 19 18 29.85 -17 00.3 8.265 8.682 111.4 6.2 20.5 21.8 2010 04 24 18 29.60 -16 58.7 8.198 8.690 116.3 6.0 20.5 21.7 2010 04 29 18 29.15 -16 57.4 8.134 8.698 121.2 5.7 20.4 21.7 2010 05 04 18 28.52 -16 56.4 8.073 8.706 126.2 5.4 20.4 21.7 2010 05 09 18 27.70 -16 55.7 8.017 8.715 131.2 5.0 20.4 21.6 2010 05 14 18 26.71 -16 55.3 7.966 8.723 136.2 4.6 20.4 21.6 2010 05 19 18 25.55 -16 55.2 7.920 8.731 141.2 4.2 20.4 21.6 2010 05 24 18 24.25 -16 55.4 7.879 8.739 146.2 3.7 20.4 21.5 2010 05 29 18 22.82 -16 56.0 7.845 8.747 151.2 3.2 20.4 21.5 2010 06 03 18 21.27 -16 57.0 7.818 8.756 156.2 2.7 20.4 21.5 2010 06 08 18 19.63 -16 58.2 7.797 8.764 161.2 2.1 20.4 21.4 2010 06 13 18 17.91 -16 59.8 7.783 8.772 165.9 1.6 20.4 21.4 2010 06 18 18 16.15 -17 01.7 7.777 8.780 170.3 1.1 20.4 21.3 2010 06 23 18 14.35 -17 03.9 7.778 8.788 173.3 0.8 20.4 21.3 2010 06 28 18 12.54 -17 06.3 7.786 8.796 173.0 0.8 20.4 21.3 2010 07 03 18 10.76 -17 09.1 7.802 8.804 169.7 1.2 20.4 21.4 2010 07 08 18 09.01 -17 12.1 7.825 8.812 165.2 1.7 20.4 21.4 2010 07 13 18 07.32 -17 15.4 7.856 8.820 160.4 2.2 20.4 21.5 2010 07 18 18 05.72 -17 18.8 7.893 8.828 155.5 2.7 20.4 21.5 2010 07 23 18 04.22 -17 22.5 7.937 8.836 150.5 3.2 20.5 21.6 2010 07 28 18 02.85 -17 26.4 7.988 8.844 145.5 3.7 20.5 21.6 2010 08 02 18 01.60 -17 30.5 8.045 8.852 140.5 4.2 20.5 21.6 2010 08 07 18 00.51 -17 34.7 8.107 8.860 135.6 4.6 20.5 21.7 2010 08 12 17 59.59 -17 39.0 8.175 8.867 130.6 5.0 20.5 21.7 2010 08 17 17 58.83 -17 43.5 8.247 8.875 125.7 5.3 20.6 21.8 2010 08 22 17 58.26 -17 48.0 8.323 8.883 120.7 5.6 20.6 21.8 2010 08 27 17 57.88 -17 52.6 8.403 8.891 115.9 5.9 20.6 21.8 2010 09 01 17 57.69 -17 57.3 8.487 8.899 111.0 6.1 20.6 21.9 2010 09 06 17 57.69 -18 01.9 8.572 8.907 106.2 6.2 20.7 21.9 2010 09 11 17 57.88 -18 06.6 8.660 8.914 101.4 6.4 20.7 21.9 2010 09 16 17 58.27 -18 11.2 8.749 8.922 96.7 6.4 20.7 22.0 2010 09 21 17 58.85 -18 15.8 8.839 8.930 92.0 6.5 20.7 22.0 2010 09 26 17 59.62 -18 20.3 8.929 8.937 87.3 6.4 20.8 22.0 2010 10 01 18 00.57 -18 24.7 9.019 8.945 82.6 6.4 20.8 22.0 2010 10 06 18 01.69 -18 28.9 9.108 8.953 78.0 6.3 20.8 22.0 2010 10 11 18 02.98 -18 33.0 9.195 8.961 73.3 6.1 20.8 22.1 2010 10 16 18 04.44 -18 36.8 9.281 8.968 68.8 5.9 20.9 22.1 2010 10 21 18 06.04 -18 40.5 9.364 8.976 64.2 5.7 20.9 22.1 2010 10 26 18 07.80 -18 43.9 9.445 8.983 59.6 5.5 20.9 22.1 2010 10 31 18 09.68 -18 47.0 9.522 8.991 55.1 5.2 20.9 22.1 2010 11 05 18 11.70 -18 49.9 9.595 8.999 50.6 4.9 21.0 22.1 2010 11 10 18 13.83 -18 52.5 9.664 9.006 46.1 4.5 21.0 22.1 2010 11 15 18 16.07 -18 54.7 9.729 9.014 41.6 4.2 21.0 22.1 2010 11 20 18 18.40 -18 56.6 9.789 9.021 37.2 3.8 21.0 22.1 2010 11 25 18 20.82 -18 58.1 9.843 9.029 32.7 3.4 21.0 22.1 2010 11 30 18 23.31 -18 59.3 9.892 9.036 28.3 3.0 21.0 22.1

Valid HTML 4.01!